Latest Weather Observations for Mount Ginini

IDN60901

Issued at 6:45 pm EDT Friday 24 October 2014 (issued every 10 minutes, with the page automatically refreshed every 10 minutes)

About weather observations | Map of Canberra area stations | Latest observations for Canberra area | Other Formats
Station Details ID: 070349 Name: MOUNT GININI AWS Lat: -35.53 Lon: 148.77 Height: 1760.0 m
Data from the previous 72 hours. | See also: Recent months at Mount Ginini
Date/Time
EDT
Tmp

°C
App
Tmp
°C
Dew
Point
°C
Rel
Hum
%
Delta-T

°C
Wind Press
QNH
hPa
Press
MSL
hPa
Rain
since
9 am
mm
Dir
 
Spd
km/h
Gust
km/h
Spd
kts
Gust
kts
24/06:30pm 15.9 12.0 6.9 55 4.9 W 17 32 9 17 - - 0.0
24/06:00pm 16.4 13.3 7.3 55 5.0 W 13 24 7 13 - - 0.0
24/05:30pm 16.6 13.6 7.5 55 5.0 W 13 26 7 14 - - 0.0
24/05:00pm 17.4 14.0 7.5 52 5.5 W 15 28 8 15 - - 0.0
24/04:30pm 18.7 15.8 8.1 50 6.0 WNW 13 28 7 15 - - 0.0
24/04:00pm 18.6 15.0 8.3 51 5.8 WNW 17 35 9 19 - - 0.0
24/03:30pm 19.0 14.8 8.4 50 6.0 NW 20 33 11 18 - - 0.0
24/03:00pm 19.7 16.0 9.3 51 6.0 NW 19 32 10 17 - - 0.0
24/02:30pm 19.4 15.2 9.9 54 5.5 NW 22 41 12 22 - - 0.0
24/02:00pm 19.2 15.6 10.5 57 5.1 NW 20 43 11 23 - - 0.0
24/01:30pm 18.9 15.5 10.5 58 4.9 NW 19 33 10 18 - - 0.0
24/01:00pm 17.6 14.0 10.0 61 4.4 NNW 19 33 10 18 - - 0.0
24/12:30pm 17.5 15.1 10.1 62 4.3 NNW 13 33 7 18 - - 0.0
24/12:00pm 16.5 13.7 9.9 65 3.8 NNW 15 26 8 14 - - 0.0
24/11:30am 14.5 11.6 9.5 72 2.8 N 15 32 8 17 - - 0.0
24/11:00am 13.6 9.6 8.2 70 3.0 NNW 19 39 10 21 - - 0.0
24/10:30am 13.2 8.9 7.9 70 2.9 NNW 20 37 11 20 - - 0.0
24/10:00am 13.8 9.7 8.8 72 2.8 NNW 20 39 11 21 - - 0.0
24/09:30am 13.6 9.4 7.4 66 3.3 NNW 19 43 10 23 - - 0.0
24/09:00am 13.4 9.7 8.0 70 2.9 N 17 39 9 21 - - 3.6
24/08:30am 12.0 7.4 6.7 70 2.8 N 20 41 11 22 - - 3.6
24/08:00am 11.7 7.0 7.6 76 2.2 N 22 39 12 21 - - 3.6
24/07:30am 10.0 6.0 8.4 90 0.9 NNE 19 32 10 17 - - 3.6
24/07:00am 9.2 5.0 8.1 93 0.6 NNE 20 32 11 17 - - 3.6
24/06:30am 8.9 4.5 7.2 89 0.9 NNE 20 33 11 18 - - 3.6
24/06:00am 8.4 2.9 4.0 74 2.1 NNE 22 33 12 18 - - 3.6
24/05:30am 8.4 2.8 1.3 61 3.2 NNE 20 33 11 18 - - 3.6
24/05:00am 8.6 2.7 1.7 62 3.2 NNE 22 35 12 19 - - 3.6
24/04:30am 8.6 2.4 2.2 64 3.0 NNE 24 37 13 20 - - 3.6
24/04:00am 8.7 3.2 2.1 63 3.1 NNE 20 33 11 18 - - 3.6
24/03:30am 8.7 3.7 4.5 75 2.1 NE 20 32 11 17 - - 3.6
24/03:00am 8.4 3.1 2.8 68 2.6 NE 20 32 11 17 - - 3.6
24/02:30am 8.0 2.1 2.0 66 2.8 E 22 39 12 21 - - 3.6
24/02:00am 8.4 1.5 2.6 67 2.7 ENE 28 41 15 22 - - 3.6
24/01:30am 8.5 4.0 6.0 84 1.3 E 19 30 10 16 - - 3.4
24/01:00am 8.7 4.2 6.8 88 1.0 NE 20 30 11 16 - - 3.4
24/12:30am 8.4 3.6 7.5 94 0.5 NE 22 35 12 19 - - 3.4
24/12:00am 8.8 4.7 7.9 94 0.5 ENE 19 30 10 16 - - 2.6
 
Date/Time
EDT
Tmp

°C
App
Tmp
°C
Dew
Point
°C
Rel
Hum
%
Delta-T

°C
Wind Press
QNH
hPa
Press
MSL
hPa
Rain
since
9 am
mm
Dir
 
Spd
km/h
Gust
km/h
Spd
kts
Gust
kts
23/11:30pm 9.0 4.4 8.2 95 0.4 NE 22 37 12 20 - - 2.4
23/11:00pm 8.4 3.7 7.6 95 0.4 ENE 22 33 12 18 - - 2.4
23/10:30pm 8.4 3.6 7.5 94 0.5 ENE 22 33 12 18 - - 2.4
23/10:00pm 9.1 4.8 7.7 91 0.7 ENE 20 32 11 17 - - 2.4
23/09:30pm 9.9 5.4 5.9 76 2.0 E 19 32 10 17 - - 2.4
23/09:00pm 10.1 5.6 6.3 77 2.0 E 19 24 10 13 - - 2.4
23/08:30pm 10.0 6.5 7.1 82 1.5 E 15 20 8 11 - - 2.4
23/08:00pm 9.9 6.3 6.6 80 1.7 E 15 20 8 11 - - 2.4
23/07:30pm 10.6 6.8 5.8 72 2.5 E 15 22 8 12 - - 2.4
23/07:00pm 11.3 7.9 6.0 70 2.7 NE 13 17 7 9 - - 2.4
23/06:30pm 11.3 8.0 6.2 71 2.6 NE 13 20 7 11 - - 2.4
23/06:00pm 11.4 8.8 9.5 88 1.1 NE 13 24 7 13 - - 2.4
23/05:30pm 10.7 8.6 9.6 93 0.6 NE 11 17 6 9 - - 2.2
23/05:00pm 10.9 8.4 9.8 93 0.6 E 13 22 7 12 - - 1.8
23/04:30pm 14.3 10.9 7.6 64 3.6 NE 15 24 8 13 - - 0.0
23/04:00pm 14.6 11.4 6.9 60 4.1 ENE 13 19 7 10 - - 0.0
23/03:30pm 14.7 12.0 7.3 61 4.0 ENE 11 19 6 10 - - 0.0
23/03:00pm 15.5 12.4 7.3 58 4.5 NE 13 20 7 11 - - 0.0
23/02:30pm 17.3 16.0 9.2 59 4.6 ENE 6 15 3 8 - - 0.0
23/02:00pm 14.9 13.5 8.8 67 3.4 E 6 13 3 7 - - 0.0
23/01:30pm 16.7 15.3 8.7 59 4.5 NNE 6 20 3 11 - - 0.0
23/01:00pm 18.2 14.8 6.1 45 6.5 NW 13 24 7 13 - - 0.0
23/12:30pm 18.5 15.3 7.0 47 6.3 NW 13 28 7 15 - - 0.0
23/12:00pm 17.5 14.5 7.8 53 5.4 WNW 13 22 7 12 - - 0.0
23/11:30am 15.9 13.1 6.9 55 4.9 NW 11 19 6 10 - - 0.0
23/11:00am 18.7 16.1 6.2 44 6.8 NW 9 20 5 11 - - 0.0
23/10:30am 17.2 14.4 2.0 36 7.5 W 6 9 3 5 - - 0.0
23/10:00am 17.1 13.8 4.8 44 6.4 SSW 11 20 6 11 - - 0.0
23/09:30am 16.4 13.0 5.7 49 5.7 SSW 13 19 7 10 - - 0.0
23/09:00am 15.4 11.7 4.5 48 5.6 SSW 13 20 7 11 - - 0.0
23/08:30am 12.9 8.8 4.6 57 4.2 SSW 15 22 8 12 - - 0.0
23/08:00am 13.3 9.7 5.2 58 4.2 SW 13 20 7 11 - - 0.0
23/07:30am 12.4 8.9 5.3 62 3.6 SW 13 19 7 10 - - 0.0
23/07:00am 12.0 8.4 5.0 62 3.6 SW 13 19 7 10 - - 0.0
23/06:30am 11.7 8.2 3.7 58 3.9 SW 11 19 6 10 - - 0.0
23/06:00am 11.6 8.0 3.1 56 4.1 WSW 11 20 6 11 - - 0.0
23/05:30am 11.7 7.3 2.7 54 4.3 SW 15 26 8 14 - - 0.0
23/05:00am 11.4 6.9 2.2 53 4.4 SW 15 24 8 13 - - 0.0
23/04:30am 11.4 7.2 1.4 50 4.7 WSW 13 26 7 14 - - 0.0
23/04:00am 11.1 7.0 4.1 62 3.5 W 15 22 8 12 - - 0.0
23/03:30am 11.3 7.8 1.3 50 4.7 WSW 9 13 5 7 - - 0.0
23/03:00am 11.9 8.7 0.7 46 5.2 W 7 9 4 5 - - 0.0
23/02:30am 12.0 8.8 -0.8 41 5.7 SW 6 6 3 3 - - 0.0
23/02:00am 11.7 8.5 -0.4 43 5.5 W 6 7 3 4 - - 0.0
23/01:30am 11.9 9.3 -1.6 39 5.9 NNW 2 4 1 2 - - 0.0
23/01:00am 12.3 9.8 -0.9 40 5.9 W 2 2 1 1 - - 0.0
23/12:30am 12.0 9.1 1.6 49 4.9 SW 6 6 3 3 - - 0.0
23/12:00am 12.2 9.2 0.6 45 5.4 WSW 6 6 3 3 - - 0.0
 
Date/Time
EDT
Tmp

°C
App
Tmp
°C
Dew
Point
°C
Rel
Hum
%
Delta-T

°C
Wind Press
QNH
hPa
Press
MSL
hPa
Rain
since
9 am
mm
Dir
 
Spd
km/h
Gust
km/h
Spd
kts
Gust
kts
22/11:30pm 12.0 10.1 3.0 54 4.4 SW 2 4 1 2 - - 0.0
22/11:00pm 11.2 8.2 4.2 62 3.5 SSW 9 11 5 6 - - 0.0
22/10:30pm 10.7 7.2 5.3 69 2.7 SW 13 15 7 8 - - 0.0
22/10:00pm 10.8 6.6 5.6 70 2.7 SW 17 20 9 11 - - 0.0
22/09:30pm 10.8 7.0 5.6 70 2.7 SW 15 19 8 10 - - 0.0
22/09:00pm 11.3 7.7 5.0 65 3.2 SW 13 19 7 10 - - 0.0
22/08:30pm 11.4 7.3 4.6 63 3.4 SW 15 19 8 10 - - 0.0
22/08:00pm 12.1 7.7 4.6 60 3.8 SW 17 26 9 14 - - 0.0
22/07:30pm 12.8 8.2 3.7 54 4.5 SW 17 26 9 14 - - 0.0
22/07:00pm 14.2 10.4 3.9 50 5.2 SW 13 20 7 11 - - 0.0
22/06:30pm 15.4 11.0 2.6 42 6.3 SW 15 26 8 14 - - 0.0
22/06:00pm 16.7 13.5 5.3 47 6.0 SSW 11 24 6 13 - - 0.0
22/05:30pm 17.1 13.5 4.8 44 6.4 SW 13 22 7 12 - - 0.0
22/05:00pm 17.6 13.9 4.2 41 7.0 SW 13 26 7 14 - - 0.0
22/04:30pm 18.1 14.5 5.0 42 6.9 WSW 13 33 7 18 - - 0.0
22/04:00pm 18.5 15.6 6.7 46 6.5 W 11 28 6 15 - - 0.0
22/03:30pm 18.4 15.1 6.3 45 6.6 W 13 30 7 16 - - 0.0
22/03:00pm 17.9 13.0 5.2 43 6.7 WSW 20 35 11 19 - - 0.0
22/02:30pm 17.7 13.0 5.3 44 6.6 WSW 19 35 10 19 - - 0.0
22/02:00pm 17.7 13.8 5.3 44 6.6 W 15 32 8 17 - - 0.0
22/01:30pm 17.3 13.2 6.2 48 6.0 W 17 32 9 17 - - 0.0
22/01:00pm 16.6 12.6 6.7 52 5.4 W 17 30 9 16 - - 0.0
22/12:30pm 16.2 12.3 7.2 55 4.9 W 17 30 9 16 - - 0.0
22/12:00pm 16.2 13.2 9.2 63 4.0 W 15 30 8 16 - - 0.0
22/11:30am 15.3 12.9 9.9 70 3.1 W 13 26 7 14 - - 0.0
22/11:00am 14.3 11.3 9.1 71 2.9 W 15 24 8 13 - - 0.0
22/10:30am 13.4 10.2 8.3 71 2.8 W 15 28 8 15 - - 0.0
22/10:00am 12.3 8.3 6.8 69 2.9 W 17 24 9 13 - - 0.0
22/09:30am 12.1 9.0 7.2 72 2.6 W 13 20 7 11 - - 0.0
22/09:00am 11.6 8.4 8.3 80 1.8 WSW 15 24 8 13 - - 0.0
22/08:30am 10.7 7.6 8.8 88 1.0 WSW 15 24 8 13 - - 0.0
22/08:00am 9.8 6.3 7.2 84 1.4 WSW 15 20 8 11 - - 0.0
22/07:30am 9.3 5.4 5.5 77 1.9 SW 15 22 8 12 - - 0.0
22/07:00am 9.0 4.6 5.0 76 2.0 SW 17 22 9 12 - - 0.0
22/06:30am 8.3 4.7 6.8 90 0.8 SW 15 20 8 11 - - 0.0
22/06:00am 8.1 4.6 7.0 93 0.6 SW 15 22 8 12 - - 0.0
22/05:30am 8.2 4.5 6.3 88 1.0 SW 15 24 8 13 - - 0.0
22/05:00am 7.9 3.9 6.5 91 0.7 WSW 17 26 9 14 - - 0.0
22/04:30am 7.9 3.8 6.2 89 0.9 SW 17 24 9 13 - - 0.0
22/04:00am 7.5 3.6 3.6 76 1.9 WSW 13 20 7 11 - - 0.0
22/03:30am 7.5 3.4 2.2 69 2.4 WSW 13 22 7 12 - - 0.0
22/03:00am 7.4 3.7 2.3 70 2.4 W 11 15 6 8 - - 0.0
22/02:30am 7.6 5.4 6.2 91 0.7 W 7 11 4 6 - - 0.0
22/02:00am 7.9 5.8 6.8 93 0.6 W 7 11 4 6 - - 0.0
22/01:30am 8.0 6.0 7.2 95 0.4 W 7 11 4 6 - - 0.0
22/01:00am 7.4 5.4 7.0 97 0.2 WSW 7 9 4 5 - - 0.0
22/12:30am 8.2 7.2 7.4 95 0.4 SW 2 4 1 2 - - 0.0
22/12:00am 8.5 7.7 8.1 97 0.2 SSE 2 4 1 2 - - 0.0
 
Date/Time
EDT
Tmp

°C
App
Tmp
°C
Dew
Point
°C
Rel
Hum
%
Delta-T

°C
Wind Press
QNH
hPa
Press
MSL
hPa
Rain
since
9 am
mm
Dir
 
Spd
km/h
Gust
km/h
Spd
kts
Gust
kts
21/11:30pm 8.0 6.8 7.9 99 0.1 S 4 6 2 3 - - 0.0
21/11:00pm 7.4 5.6 7.3 99 0.1 S 6 11 3 6 - - 0.0
21/10:30pm 3.9 1.8 3.8 99 0.0 ENE 4 7 2 4 - - 0.0
21/10:00pm 4.7 2.7 4.6 99 0.0 SSE 4 9 2 5 - - 0.0
21/09:30pm 4.7 2.2 4.6 99 0.0 NNE 7 11 4 6 - - 0.0
21/09:00pm 5.1 2.8 5.0 99 0.0 NE 6 9 3 5 - - 0.0
21/08:30pm 5.1 2.2 4.8 98 0.1 ENE 9 11 5 6 - - 0.0
21/08:00pm 5.3 2.5 5.0 98 0.1 ENE 9 11 5 6 - - 0.0
21/07:30pm 5.5 3.1 5.1 97 0.2 NE 7 11 4 6 - - 0.0
21/07:00pm 6.1 3.9 5.5 96 0.3 NE 6 9 3 5 - - 0.0

Latest Capital City Observations: Canberra | Sydney | Melbourne | Brisbane | Adelaide | Perth | Hobart | Darwin

Other Formats:

Comma delimited format used in spreadsheet applications
http://www.bom.gov.au/fwo/IDN60903/IDN60903.95925.axf

JavaScript Object Notation format (JSON) in row-major order
http://www.bom.gov.au/fwo/IDN60903/IDN60903.95925.json